Location: �talon
(49.7642°N, 2.8557°E)
Time: 12:05:37
(UTC+00:00)

Daily predictions for brighter satellites

Satellite Brightness Start Highest point End
(mag) Time Altitude Azimuth Time Altitude Azimuth Time Altitude Azimuth
USA 267 3.7 16:15:00 10° ENE 16:21:21 51° SE 16:27:40 10° SSW
SJ 16-02 2.9 16:20:14 10° NW 16:24:22 41° WSW 16:28:27 10° S
H-2A R/B 3.0 16:21:00 10° ESE 16:25:03 24° ENE 16:29:01 10° N
Cosmos 1763 Rocket 4.0 16:23:03 10° S 16:27:43 39° ESE 16:32:28 10° NE
USA 276 3.9 16:25:08 10° W 16:28:00 34° SSW 16:30:52 10° SE
USA 305 3.3 16:24:11 10° W 16:28:19 50° N 16:32:28 10° ENE
CZ-4B R/B 2.8 16:25:10 10° SSE 16:29:08 59° ENE 16:32:55 10° N
Cosmos 1656 3.9 16:24:26 10° NNW 16:30:00 80° WSW 16:35:35 10° SSE
Cosmos 1933 4.3 16:30:37 10° SSE 16:34:03 27° E 16:37:30 10° NNE
USA 229 DEB 4.0 16:27:27 10° NW 16:34:45 85° NE 16:42:32 10° SE
USA 229 4.0 16:27:33 10° NW 16:34:50 84° NE 16:42:38 10° SE
Cosmos 1464 Rocket 4.1 16:29:38 10° S 16:36:01 83° E 16:42:26 10° N
Cosmos 1937 Rocket 3.7 16:31:09 10° NNW 16:36:20 49° ENE 16:41:29 10° SE
SL-16 R/B 4.5 16:34:41 10° N 16:39:20 23° NW 16:44:00 10° WSW
Cosmos 1500 Rocket 3.6 16:34:55 10° N 16:39:21 62° ENE 16:43:42 10° SSE
Cosmos 1666 4.3 16:37:17 10° NNE 16:39:26 15° ENE 16:41:33 10° E
Spot 1 4.4 16:34:57 10° NNE 16:39:36 65° ESE 16:44:30 10° S
Nadezhda 4 Rocket 4.0 16:34:47 10° N 16:41:09 82° E 16:47:30 10° SSE
SL-24 R/B - RUBIN 2 3.9 16:37:15 10° NNW 16:41:45 45° NE 16:45:56 10° ESE
SeaSat 1 3.8 16:37:47 10° NNE 16:42:13 34° NW 16:46:37 10° WSW
Cosmos 2322 Rocket 3.8 16:39:14 10° N 16:42:45 16° NNE 16:45:58 11° ENE
ATLAS 2AS CENTAUR R/B 4.0 16:36:19 10° W 16:43:09 32° NNW 16:49:43 10° NE
Cosmos 990 Rocket 4.0 16:38:06 10° NNW 16:43:20 88° WSW 16:48:31 10° SSE
Cosmos 1697 Rocket 2.6 16:40:01 10° NNW 16:45:40 74° ENE 16:51:16 10° SE
FengYun 1-2 T 4.2 16:41:16 10° SSE 16:46:50 74° ENE 16:52:23 10° NNW
Cosmos 372 Rocket 4.4 16:42:33 10° NNW 16:47:30 40° ENE 16:52:26 10° SE
Cosmos 1271 Rocket 4.4 16:44:26 10° SW 16:48:05 35° WNW 16:51:48 10° N
Sich 1 3.5 16:45:01 10° N 16:49:02 37° ENE 16:53:02 10° SE
Cosmos 1980 Rocket 2.4 16:44:24 10° NNW 16:49:53 47° NE 16:55:19 10° SE
NOAA 6 4.0 16:45:09 10° SSE 16:50:14 64° ENE 16:55:19 10° N
Cosmos 1805 Rocket 3.7 16:46:51 10° N 16:51:05 49° ENE 16:55:17 10° SSE
Cosmos 2369 3.8 16:46:11 10° NNW 16:51:53 58° NE 16:57:30 10° SE
Cosmos 2221 2.8 16:47:57 10° SSW 16:52:12 70° W 16:56:32 10° N
CZ-4C R/B 3.0 16:49:23 10° NW 16:56:06 55° NE 17:04:07 10° ESE
USA 234 3.4 16:49:46 10° ESE 16:56:19 85° SSW 17:02:54 10° WNW
Cosmos 1092 Rocket 4.0 16:50:42 10° N 16:57:03 67° ENE 17:03:20 10° SSE
Cosmos 1842 Rocket 3.9 16:52:37 10° SSW 16:57:05 73° W 17:01:35 10° N
Cosmos 2084 4.4 16:53:46 10° NW 16:57:57 53° SW 17:02:18 10° SSE
NOSS 3-1 (A) 4.4 16:50:54 10° NW 16:58:18 74° SW 17:06:59 10° SSE
Cosmos 1428 Rocket 4.5 16:53:42 10° N 16:59:46 61° ENE 17:05:51 10° SSE
USA 306 3.4 16:56:25 10° WNW 17:00:32 47° N 17:03:35 17° ENE
SL-16 R/B 3.3 16:56:30 10° NNW 17:00:58 23° NE 17:04:15 14° E
Cosmos 1812 4.0 16:58:13 10° SE 17:01:07 21° E 17:02:43 16° NE
ISS -3.7 16:58:28 10° WNW 17:01:53 87° SSW 17:04:58 12° ESE
Meteor 1-25 Rocket 4.2 16:57:11 10° N 17:02:47 82° ENE 17:08:23 10° SSE
NOSS 2-2 (D) 4.2 16:59:02 10° NW 17:03:57 71° NE 17:10:50 10° SE
NOSS 2-2 (E) 4.3 16:59:12 10° NW 17:04:18 82° NE 17:11:30 10° SE
deb Chang Zheng 4 4.3 17:01:56 10° SE 17:05:43 31° ENE 17:09:31 10° N
SMAP 3.0 17:01:32 10° SSE 17:06:12 86° ENE 17:10:53 10° NNW
Cosmos 2082 Rocket 2.9 17:01:39 10° S 17:06:42 34° ESE 17:10:43 15° NE
Cosmos 1939 Rocket 3.0 17:03:18 10° SSE 17:07:25 84° WSW 17:11:32 10° NNW
Cosmos 858 Rocket 4.5 17:03:33 10° NNW 17:08:53 79° ENE 17:14:09 10° SSE
CORIOLIS 4.1 17:03:47 10° SSE 17:09:11 82° ENE 17:14:39 10° NNW
Cosmos 2333 Rocket 4.1 17:08:41 10° N 17:11:08 13° NNE 17:12:25 12° NE
Cosmos 44 Rocket 4.0 17:06:35 10° NNW 17:11:09 35° NE 17:14:23 17° E
CZ-4B DEB 4.1 17:10:03 10° SSE 17:15:34 81° ENE 17:21:05 10° NNW
Cosmos 2278 3.8 17:10:20 10° NNW 17:15:56 52° NE 17:21:29 10° SE
Cosmos 1602 3.7 17:12:27 10° N 17:16:20 89° ESE 17:20:12 10° S
Cosmos 1627 Rocket 4.4 17:12:19 10° N 17:18:32 80° E 17:24:40 10° SSE
USA 307 3.4 17:15:12 10° WNW 17:19:21 47° N 17:21:38 24° ENE
AQUARIUS 4.2 17:15:38 10° SSE 17:20:07 82° WSW 17:24:39 10° NNW
Cosmos 540 Rocket 3.4 17:16:34 10° S 17:21:37 65° ESE 17:26:07 13° NNE
Cosmos 2034 Rocket 4.4 17:16:56 10° SSW 17:23:02 66° WNW 17:29:12 10° N
COSMO-SKYMED 1 3.3 17:23:24 21° NE 17:25:29 32° E 17:29:23 10° SSE
ARGOS 3.4 17:20:38 10° SE 17:25:46 46° ENE 17:30:55 10° N
Cosmos 2279 Rocket 4.2 17:20:53 10° SSE 17:26:45 46° E 17:32:37 10° NNE
COSMOS 2406 3.2 17:21:32 10° SSW 17:27:16 75° ESE 17:32:10 15° NNE
Cosmos 1833 Rocket 2.7 17:22:56 10° SSW 17:28:35 86° WNW 17:33:42 13° NNE
Meteor 2-21 4.4 17:23:25 10° N 17:29:33 85° E 17:35:36 10° S
Cosmos 1782 2.7 17:26:05 10° S 17:30:02 71° E 17:33:48 11° NNE
Cosmos 1814 Rocket 4.5 17:26:24 10° S 17:31:13 39° ESE 17:33:44 24° NE
ATLAS 5 CENTAUR R/B 2.7 17:22:53 10° NW 17:31:37 48° NNE 17:33:08 30° E
Cosmos 1633 Rocket 3.2 17:30:00 10° N 17:34:16 50° ENE 17:38:31 10° SSE
ATLAS CENTAUR R/B 3.7 17:32:25 10° WNW 17:35:16 17° NNW 17:37:49 11° NNE
Cosmos 1818 3.7 17:29:55 10° NW 17:35:18 51° NE 17:38:50 21° ESE
Cosmos 468 Rocket 4.4 17:31:09 10° SW 17:36:16 63° WNW 17:41:28 10° NNE
Cosmos 2219 Rocket 4.0 17:33:40 10° N 17:36:23 13° NNE 17:36:27 13° NNE
YAOGAN 1 3.8 17:39:35 23° NNE 17:39:35 23° NNE 17:41:55 10° N
ERBS 3.7 17:37:52 10° WNW 17:40:32 23° N 17:41:01 23° N
GEOS 3 Rocket 3.9 17:37:59 25° E 17:40:46 47° NE 17:45:43 10° NW
CZ-2D R/B 3.4 17:37:05 10° S 17:40:54 75° WSW 17:44:45 10° NNW
USA 308 3.3 17:37:49 10° WNW 17:41:57 47° N 17:43:14 35° NE
Cosmos 1634 Rocket 4.0 17:37:18 10° S 17:43:39 89° E 17:50:02 10° N
SJ-11-01 4.3 17:38:59 10° SSE 17:43:39 61° ENE 17:48:20 10° N
COSMOS 2455 2.8 17:38:32 10° SSW 17:44:30 70° ESE 17:48:14 24° NE
CZ-2C R/B 2.6 17:40:35 14° NNE 17:44:58 52° E 17:50:00 10° S
PAYLOAD B 4.4 17:39:48 10° SSE 17:45:25 77° WSW 17:51:03 10° NNW
Cosmos 1500 3.5 17:42:07 10° NNW 17:45:50 64° W 17:49:31 10° S
Cosmos 2026 Rocket 4.3 17:41:11 10° NNW 17:47:19 68° W 17:53:19 10° S
CZ-4B R/B 3.0 17:42:30 10° SSE 17:47:54 82° ENE 17:53:17 10° NNW
Cosmos 1151 Rocket 3.0 17:44:48 10° S 17:49:04 62° E 17:51:27 25° NNE
Lacrosse 5 rocket 1.3 17:46:01 10° NW 17:49:52 58° NNE 17:50:36 48° ENE
Okean O Rocket 1.5 17:47:32 10° SSE 17:51:57 70° ENE 17:56:25 10° N
CZ-4 R/B 3.6 17:59:39 13° N 17:59:39 13° N 18:00:12 10° N
Cosmos 1666 Rocket 3.7 17:55:40 10° NNW 18:00:08 77° W 18:04:32 10° S
Cosmos 2208 Rocket 4.3 17:55:11 10° S 18:00:22 49° ESE 18:01:40 41° ENE
CZ-4 R/B 4.3 17:57:09 10° SSE 18:01:17 81° ENE 18:05:26 10° NNW
Meteor 1-11 Rocket 3.9 17:56:45 10° N 18:02:10 47° ENE 18:05:45 21° SE
Cosmos 1470 Rocket 3.5 17:58:57 10° N 18:03:21 59° ENE 18:07:46 10° SSE
Meteor 1-10 Rocket 4.4 17:57:59 10° SSE 18:03:27 46° E 18:04:52 38° NE
Cosmos 2150 Rocket 4.0 17:58:24 10° NNW 18:03:29 53° ENE 18:04:48 42° ESE
H-2A R/B 2.6 17:59:03 10° S 18:04:09 58° W 18:09:08 10° NNW
USA 267 3.4 18:01:04 30° NE 18:04:34 71° NNW 18:11:04 10° WSW
Cosmos 1655 Rocket 4.0 17:59:03 10° N 18:05:24 61° ENE 18:11:42 10° SSE
Cosmos 1328 Rocket 3.4 18:02:12 10° S 18:06:36 67° E 18:07:30 52° NE
Cosmos 2360 Rocket 3.2 18:02:58 10° NNW 18:07:10 29° NNE 18:07:10 29° NNE
Landsat 5 3.6 18:08:41 53° SE 18:08:41 53° SE 18:12:04 10° S
USA 305 3.1 18:04:29 10° WNW 18:08:39 54° NNE 18:08:46 54° NNE
SKYMED 2 3.5 18:12:00 37° NNE 18:13:43 87° WNW 18:18:04 10° SSW
Cosmos 1666 3.4 18:11:39 10° NNW 18:15:18 52° W 18:18:54 10° S
Cosmos 2180 Rocket 4.4 18:09:06 10° S 18:15:26 79° E 18:21:43 10° NNE
Cosmos 841 Rocket 3.9 18:10:42 10° SW 18:15:48 61° WNW 18:18:54 24° N
Feng Yun 1-1 Rocket 4.2 18:11:27 10° SSE 18:17:22 78° ENE 18:23:15 10° NNW
Meteor 2-8 Rocket 4.3 18:12:51 10° S 18:19:00 81° E 18:25:12 10° NNE
ATLAS CENTAUR R/B 2.4 18:12:09 10° WSW 18:20:00 64° NNW 18:20:43 54° NNE
Cosmos 1125 Rocket 3.4 18:16:23 10° NNW 18:21:38 68° ENE 18:22:14 62° ESE
Cosmos 2322 Rocket 2.3 18:22:29 10° NNW 18:27:49 55° NE 18:27:49 55° NE
NOSS 3-4 (A) 4.4 18:27:47 10° NW 18:33:46 35° NNE 18:33:58 35° NNE
Cosmos 1980 Rocket 3.7 18:28:41 10° NW 18:33:47 35° WSW 18:38:49 10° S
NOSS 3-4 (C) 4.4 18:27:53 10° NW 18:33:52 35° NNE 18:34:03 35° NNE
SL-08 RB Rocket 4.0 18:30:39 10° S 18:35:16 66° WSW 18:39:53 10° NNW
ATLAS 2AS CENTAUR R/B 3.9 18:29:54 10° NW 18:36:20 29° N 18:37:27 28° NNE
Cosmos 1812 4.2 18:33:04 10° SW 18:36:38 35° WNW 18:37:47 29° NW
ISS -1.5 18:35:38 10° W 18:37:58 23° SW 18:37:58 23° SW
USA 306 3.8 18:36:35 10° WNW 18:39:35 43° NW 18:39:35 43° NW
CZ-4C R/B 3.6 18:37:54 10° NW 18:44:56 54° WSW 18:53:04 10° SSE
SL-16 R/B 2.1 18:40:08 10° NNW 18:45:51 89° WSW 18:46:11 80° SSE
Cosmos 2237 Rocket 4.5 18:46:28 10° N 18:47:00 11° N 18:47:00 11° N
Cosmos 2082 Rocket 3.0 18:45:09 10° SW 18:50:38 48° NW 18:52:35 35° N
Cosmos 44 Rocket 3.9 18:48:07 10° NW 18:52:54 51° WSW 18:53:10 50° SW
Cosmos 2333 Rocket 3.8 18:51:54 10° NNW 18:54:26 23° N 18:54:26 23° N
COSMO-SKYMED 1 4.2 19:00:37 28° NW 19:01:37 31° WNW 19:05:26 10° SW
ATLAS CENTAUR R/B 4.4 19:13:44 10° NNW 19:13:56 10° NNW 19:13:56 10° NNW
GEOS 3 Rocket 4.5 19:19:06 45° WSW 19:19:06 45° WSW 19:23:49 10° NW
Cosmos 2219 Rocket 4.2 19:16:34 10° NNW 19:18:11 18° NNW 19:18:11 18° NNW
CZ-2C R/B 4.4 19:22:06 17° NNW 19:24:59 27° WNW 19:29:15 10° WSW
Lacrosse 5 rocket 4.1 19:25:14 10° WNW 19:26:12 16° WNW 19:26:12 16° WNW
COSMOS 2455 4.1 19:25:33 10° W 19:30:56 33° NW 19:31:23 32° NNW
BREEZE-M DEB (TANK) 4.4 19:27:48 10° SW 19:44:57 64° SSW 19:44:57 64° SSW
USA 267 4.1 19:48:24 43° NW 19:48:24 43° NW 19:53:22 10° WNW
Cosmos 2360 Rocket 4.1 19:46:45 10° NW 19:48:57 24° NW 19:48:57 24° NW
Cosmos 2322 Rocket 4.3 20:07:02 10° NW 20:09:40 22° WNW 20:09:40 22° WNW
ATLAS 2AS CENTAUR R/B 4.5 20:21:45 10° NW 20:24:52 26° NNW 20:24:52 26° NNW
